TimeEST,TemperatureF,Dew PointF,Humidity,Sea Level PressureIn,VisibilityMPH,Wind Direction,Wind SpeedMPH,Gust SpeedMPH,PrecipitationIn,Events,Conditions,WindDirDegrees,DateUTC
12:51 AM,62.1,61.0,96,29.83,4.0,SW,5.8,-,N/A,,Clear,220,2014-01-06 05:51:00
1:10 AM,61.0,60.1,97,29.82,2.5,SW,6.9,-,N/A,,Partly Cloudy,230,2014-01-06 06:10:00
1:51 AM,62.1,61.0,96,29.81,2.5,SW,5.8,-,N/A,,Mostly Cloudy,220,2014-01-06 06:51:00
2:02 AM,62.1,61.0,96,29.81,3.0,SW,5.8,-,N/A,,Overcast,220,2014-01-06 07:02:00
2:51 AM,62.1,61.0,96,29.80,3.0,SW,9.2,-,N/A,,Scattered Clouds,230,2014-01-06 07:51:00
3:51 AM,62.1,61.0,96,29.78,5.0,SW,10.4,-,N/A,,Clear,220,2014-01-06 08:51:00
4:51 AM,62.1,61.0,96,29.75,5.0,SW,10.4,-,N/A,,Partly Cloudy,220,2014-01-06 09:51:00
5:51 AM,63.0,62.1,97,29.74,8.0,SW,15.0,24.2,N/A,,Mostly Cloudy,220,2014-01-06 10:51:00
6:51 AM,64.0,62.1,93,29.74,5.0,SW,12.7,-,N/A,,Clear,230,2014-01-06 11:51:00
7:51 AM,64.9,63.0,93,29.74,5.0,SW,15.0,21.9,N/A,,Partly Cloudy,220,2014-01-06 12:51:00
8:51 AM,66.0,63.0,90,29.73,4.0,SW,15.0,21.9,N/A,,Clear,230,2014-01-06 13:51:00
9:51 AM,66.9,62.1,84,29.73,6.0,WSW,18.4,25.3,N/A,,Haze,240,2014-01-06 14:51:00
10:51 AM,66.9,62.1,84,29.69,6.0,WSW,18.4,27.6,N/A,,Haze,240,2014-01-06 15:51:00
11:51 AM,66.9,62.1,84,29.65,5.0,WSW,20.7,29.9,N/A,,Haze,240,2014-01-06 16:51:00
12:51 PM,64.9,59.0,81,29.63,5.0,WSW,24.2,38.0,N/A,,Haze,240,2014-01-06 17:51:00
1:51 PM,62.1,57.9,86,29.67,5.0,WNW,20.7,36.8,N/A,,Mostly Cloudy,290,2014-01-06 18:51:00
2:04 PM,54.0,50.0,86,29.68,10.0,WNW,17.3,31.1,N/A,,Overcast,290,2014-01-06 19:04:00
2:13 PM,54.0,50.0,86,29.68,10.0,WNW,16.1,31.1,N/A,,Overcast,290,2014-01-06 19:13:00
2:51 PM,53.1,50.0,89,29.69,6.0,WNW,16.1,25.3,0.00,Rain,Light Rain,290,2014-01-06 19:51:00
3:19 PM,51.1,50.0,96,29.71,5.0,West,12.7,24.2,0.02,Rain,Light Rain,270,2014-01-06 20:19:00
3:51 PM,51.1,48.9,92,29.72,10.0,West,16.1,27.6,0.03,,Overcast,270,2014-01-06 20:51:00
4:51 PM,48.9,45.0,86,29.76,10.0,NNW,8.1,20.7,N/A,,Overcast,330,2014-01-06 21:51:00
5:05 PM,48.0,46.0,93,29.77,10.0,NW,8.1,-,N/A,,Overcast,320,2014-01-06 22:05:00
5:51 PM,48.0,43.0,83,29.81,10.0,WNW,11.5,19.6,N/A,,Mostly Cloudy,300,2014-01-06 22:51:00
6:51 PM,46.9,41.0,80,29.84,10.0,WNW,13.8,24.2,N/A,,Mostly Cloudy,290,2014-01-06 23:51:00
7:51 PM,46.0,30.0,54,29.88,10.0,WNW,16.1,32.2,N/A,,Clear,290,2014-01-07 00:51:00
8:51 PM,43.0,30.9,62,29.92,10.0,NW,15.0,25.3,N/A,,Partly Cloudy,310,2014-01-07 01:51:00
9:51 PM,42.1,24.1,49,29.95,10.0,WNW,20.7,26.5,N/A,,Clear,300,2014-01-07 02:51:00
10:51 PM,39.0,24.1,55,29.99,10.0,WNW,17.3,28.8,N/A,,Clear,300,2014-01-07 03:51:00
11:51 PM,37.0,19.9,50,30.03,10.0,WNW,20.7,31.1,N/A,,Partly Cloudy,300,2014-01-07 04:51:00